Wind_Speed
40 40 40 40 38 38 38 38 40 38 37 36 37 38 39 40 40 40 40 41 42 43 44 45 46 46 46 46 46 47 47 46 44 42 41 40 40 39 39 38 38 37 36 35
41 40 40 40 39 39 39 39 39 39 37 36 37 39 39 39 39 39 40 41 43 44 45 46 47 46 45 46 46 47 46 44 42 40 39 38 37 37 37 36 35 34 33 33
41 40 41 41 38 38 38 38 39 39 37 37 38 39 39 40 40 40 41 43 43 45 45 46 46 45 45 46 47 46 45 42 40 38 37 35 34 34 34 33 32 31 30 29
42 41 43 39 37 37 38 37 38 38 38 39 39 39 40 40 41 41 42 43 43 44 45 46 45 45 46 45 46 45 43 40 38 36 34 33 33 32 31 30 28 28 26 27
43 43 43 39 38 38 39 38 37 38 38 39 39 39 39 39 40 41 42 43 43 44 45 45 45 45 45 45 44 44 41 38 35 34 32 31 30 29 29 27 25 24 24 24
44 45 44 40 38 39 40 40 38 38 39 40 41 41 40 40 41 42 43 44 44 44 45 45 45 44 44 43 42 41 39 36 34 32 31 30 29 28 27 25 23 22 21 20
44 44 44 41 40 40 40 40 39 40 40 40 41 42 43 43 42 43 43 44 45 45 44 44 44 44 42 41 40 38 37 34 32 31 30 28 28 27 25 24 22 21 20 20
44 45 43 40 40 40 41 41 41 41 41 41 42 42 43 43 43 43 44 44 45 44 43 43 43 42 41 40 38 35 34 32 31 29 28 28 26 24 23 22 22 20 18 18
42 42 41 40 40 40 41 41 41 41 41 42 42 43 43 43 43 43 44 44 43 42 41 41 42 41 39 37 36 34 33 31 29 27 26 26 24 22 21 21 20 19 18 16
40 40 39 40 40 40 41 41 41 41 42 42 43 43 43 43 43 43 43 42 41 40 40 40 40 39 37 36 35 33 32 31 30 27 25 24 23 21 20 19 18 17 16 14
39 38 38 39 40 40 41 41 41 42 43 43 43 43 43 43 42 41 41 41 40 40 40 40 39 38 36 36 35 34 33 32 30 27 26 24 22 21 20 19 18 16 14 12
39 38 40 40 40 40 41 42 43 43 43 43 44 44 43 42 42 41 40 40 40 40 40 39 38 37 36 36 36 35 33 31 29 27 25 23 21 19 17 16 14 13 12 11
40 41 41 41 41 41 42 43 43 44 43 43 43 43 43 42 41 40 39 39 39 39 38 38 37 36 35 35 34 32 31 29 27 25 22 20 17 15 14 13 12 11 11 11
40 41 42 42 43 43 44 44 44 44 43 43 43 42 42 41 40 39 39 38 38 38 37 35 35 34 33 32 30 29 28 27 25 20 17 15 14 13 12 11 11 11 12 12
38 40 41 41 41 42 42 42 42 41 41 42 41 41 40 39 38 38 37 37 36 35 34 33 33 32 31 30 28 26 25 24 21 17 15 13 12 12 12 11 10 10 12 13
37 37 38 38 38 38 38 38 38 38 38 38 37 37 37 36 36 35 34 34 34 33 32 32 31 29 28 27 26 24 23 21 19 16 14 13 12 11 11 10 10 10 11 12
35 35 34 34 34 35 35 35 35 35 35 35 35 35 35 35 34 33 33 32 32 31 30 29 27 26 26 25 24 22 21 19 17 15 14 13 12 11 11 10 10 10 10 11
31 31 32 32 31 32 32 32 32 33 33 33 33 33 33 33 32 31 31 31 29 28 28 27 26 25 25 24 22 21 19 17 16 14 13 13 12 11 10 9 9 10 10 12
28 28 29 29 29 29 29 29 29 30 30 31 31 31 31 30 29 29 28 28 26 26 26 25 24 24 23 23 22 20 18 16 14 13 12 12 11 11 10 10 10 10 11 12
27 27 27 27 27 27 27 27 27 28 28 29 29 29 28 28 28 27 26 26 25 25 24 23 22 22 22 21 20 18 16 14 13 12 11 11 10 10 10 10 10 11 11 12
25 25 25 25 24 25 25 26 26 27 27 28 27 27 26 26 26 26 25 24 24 24 23 22 21 21 21 19 17 15 14 12 11 11 10 9 10 10 11 11 11 11 12 13
22 22 23 23 23 24 25 25 26 26 26 26 26 25 25 25 24 24 23 23 23 23 22 21 20 20 19 17 15 13 12 11 10 9 9 9 9 10 11 12 12 12 12 14
22 22 22 23 24 24 24 25 25 25 25 25 25 25 24 24 23 22 22 22 22 22 21 20 19 19 17 15 13 12 11 10 9 9 8 8 8 10 11 12 12 12 12 13
21 22 22 23 23 24 24 24 24 24 24 24 25 25 25 24 23 23 22 22 22 22 21 19 19 18 16 14 13 12 11 10 9 8 8 8 8 9 10 11 11 12 12 14
22 23 23 23 24 24 24 24 24 25 24 24 24 25 25 24 23 23 23 23 22 21 20 19 18 17 15 13 12 12 10 10 9 8 8 8 8 9 10 11 11 12 13 15
23 23 24 24 24 24 24 24 24 24 24 24 25 25 24 24 23 23 23 22 21 20 20 19 17 15 14 13 12 11 11 10 9 9 8 8 9 10 10 11 12 13 14 15
22 23 23 23 23 23 24 24 24 24 24 25 24 24 23 22 22 22 21 20 19 19 18 17 15 14 12 12 11 11 10 10 10 9 10 10 10 11 11 12 13 14 15 16
Wind_Direction
268 270 273 276 278 280 282 286 289 293 295 297 298 299 300 302 303 304 304 305 306 306 306 307 308 309 307 307 307 307 306 304 301 297 295 295 293 292 289 285 282 279 274 269
267 269 271 273 276 279 282 285 289 292 294 297 297 299 300 301 302 303 303 304 306 306 306 307 308 308 307 308 308 308 307 304 301 297 295 295 294 293 290 287 283 279 274 268
269 270 270 271 276 280 282 285 288 291 295 295 296 299 301 300 300 301 303 305 306 306 307 309 308 308 309 309 309 309 307 305 302 300 296 296 295 294 292 290 285 280 275 268
268 270 270 276 277 279 281 284 287 290 292 294 296 299 300 301 301 302 303 304 306 308 308 309 308 308 310 311 311 310 309 305 303 300 297 296 295 294 293 292 287 282 275 269
267 270 272 275 278 281 282 284 287 289 291 293 296 297 298 299 300 302 303 305 307 308 309 310 310 310 310 311 311 311 309 305 303 301 300 298 296 295 295 291 286 281 277 272
267 270 273 277 279 281 282 284 286 289 291 293 295 297 298 299 300 302 303 304 306 307 308 309 310 311 311 312 312 312 310 306 303 301 301 299 297 297 295 290 285 280 278 272
266 270 273 277 279 281 281 284 286 289 291 293 295 298 300 300 300 301 303 304 305 307 307 308 309 310 311 312 312 312 311 308 303 300 301 301 299 297 293 289 284 279 272 267
265 268 273 277 278 279 281 283 286 288 291 293 295 297 298 299 299 301 302 304 305 306 306 308 309 309 310 311 311 311 310 309 305 302 300 300 298 296 292 288 284 278 273 264
266 269 273 275 277 278 280 282 285 287 290 292 294 296 297 298 299 301 301 303 304 305 307 308 309 310 310 311 310 310 308 308 307 303 301 300 297 293 290 286 281 276 270 262
264 267 270 273 275 277 279 282 284 287 289 291 293 295 297 298 299 300 301 302 303 304 306 307 309 310 309 309 309 306 305 307 306 304 301 298 296 292 288 284 279 275 270 259
261 264 267 270 273 275 278 281 283 285 288 291 293 295 296 296 297 298 300 301 303 304 305 307 308 308 306 307 307 306 306 306 305 302 300 296 293 290 286 283 280 272 265 254
260 263 266 268 271 274 276 278 280 283 285 288 291 293 294 294 296 297 298 300 302 303 305 305 306 306 305 305 306 306 306 305 304 301 298 294 289 284 281 277 271 265 256 246
262 262 264 268 271 273 276 279 281 283 285 287 289 291 292 294 295 296 298 299 301 303 303 304 305 305 304 304 305 305 305 305 304 300 295 291 285 279 273 269 266 258 246 235
263 265 266 269 272 275 277 279 280 282 283 285 287 289 291 292 293 295 297 298 300 302 303 303 304 303 303 303 303 303 304 304 303 299 293 289 285 283 276 266 260 252 241 234
265 268 270 272 274 276 278 279 280 281 282 285 287 289 290 292 293 294 296 297 299 301 301 301 302 301 301 301 301 302 303 303 303 298 293 289 286 283 278 270 261 250 237 230
267 269 271 273 274 276 277 278 279 281 282 285 287 288 290 292 293 294 295 296 298 300 300 299 300 299 298 298 300 301 302 301 299 295 291 286 281 278 274 265 254 244 232 225
268 269 270 272 274 276 277 278 280 281 284 286 288 289 290 291 293 293 295 295 296 297 297 298 298 298 298 299 300 301 301 299 296 294 287 281 275 270 267 260 247 238 228 218
270 270 271 273 275 277 279 280 282 284 285 287 289 290 290 291 291 292 294 294 294 294 295 296 296 296 297 297 297 298 296 293 293 291 283 276 269 263 260 252 236 226 220 215
269 269 270 271 275 279 281 282 283 284 286 288 289 290 291 291 292 292 293 293 291 292 293 294 296 296 296 297 296 294 290 288 290 287 277 268 261 254 248 240 228 219 211 207
268 269 270 272 276 279 281 282 283 284 286 288 291 292 291 291 292 292 291 291 291 293 293 293 293 294 296 297 295 291 286 285 285 283 275 264 253 246 237 228 220 214 210 206
268 268 270 273 276 278 281 283 284 285 286 288 290 292 291 290 291 290 290 291 291 292 292 292 292 293 295 295 292 287 283 281 280 279 272 260 249 238 231 225 221 216 211 207
267 267 270 273 277 280 282 284 285 286 286 287 289 291 291 291 290 290 290 291 290 290 291 291 291 292 293 291 287 282 279 277 276 274 267 259 248 234 227 224 219 215 213 208
266 268 271 274 277 280 282 284 286 287 287 286 288 290 292 291 290 289 289 289 290 291 291 291 289 289 288 284 281 278 276 274 272 268 260 250 238 227 220 216 214 213 209 202
267 270 273 275 277 280 282 283 284 286 286 286 286 289 292 291 289 289 288 288 289 290 290 289 289 286 282 278 276 273 271 270 266 260 249 235 224 217 210 207 205 202 198 193
267 269 272 274 276 278 279 281 284 287 287 287 288 290 291 290 289 287 287 288 288 288 287 286 285 281 273 269 270 268 264 261 255 247 234 223 214 206 200 197 195 193 190 185
269 270 272 274 276 278 280 283 285 287 287 288 289 290 290 290 289 288 288 287 287 286 284 282 278 272 266 262 264 262 257 250 241 232 222 216 210 203 198 195 193 190 185 183
269 270 271 273 275 278 280 283 285 287 287 288 288 289 288 289 290 289 288 286 286 285 281 277 271 265 258 256 257 255 247 237 229 224 218 213 209 203 198 196 193 187 181 179
Height
5618 5618 5617 5617 5617 5615 5614 5613 5611 5611 5608 5606 5601 5596 5593 5589 5584 5580 5576 5571 5567 5562 5557 5552 5547 5541 5535 5529 5522 5516 5509 5503 5498 5494 5490 5486 5483 5479 5475 5471 5468 5466 5464 5464
5607 5608 5607 5606 5608 5607 5605 5604 5602 5600 5600 5598 5592 5588 5584 5580 5576 5572 5567 5563 5558 5553 5547 5542 5536 5530 5525 5518 5512 5505 5498 5492 5487 5483 5480 5476 5473 5469 5465 5462 5459 5456 5455 5454
5596 5597 5595 5596 5601 5599 5597 5596 5593 5591 5592 5588 5583 5579 5575 5571 5567 5562 5558 5554 5549 5543 5538 5532 5526 5520 5514 5508 5501 5494 5488 5482 5477 5473 5470 5467 5463 5460 5456 5453 5450 5449 5447 5447
5584 5586 5584 5592 5591 5589 5587 5587 5584 5582 5581 5578 5574 5570 5566 5562 5557 5553 5548 5544 5539 5534 5528 5523 5517 5511 5505 5498 5491 5485 5478 5473 5468 5464 5461 5458 5455 5452 5448 5446 5443 5441 5440 5440
5573 5572 5574 5580 5581 5579 5576 5577 5576 5573 5571 5568 5564 5562 5559 5553 5548 5543 5539 5534 5529 5524 5519 5513 5507 5501 5495 5489 5482 5475 5470 5464 5460 5457 5454 5451 5447 5445 5441 5439 5437 5436 5435 5434
5563 5562 5563 5571 5571 5568 5567 5566 5567 5563 5561 5558 5554 5551 5550 5544 5539 5535 5530 5525 5520 5515 5510 5504 5498 5492 5486 5480 5473 5467 5461 5456 5453 5449 5446 5443 5440 5438 5435 5433 5432 5431 5430 5430
5552 5551 5553 5560 5560 5558 5557 5557 5555 5552 5550 5547 5544 5541 5538 5533 5529 5525 5520 5515 5510 5505 5500 5494 5488 5482 5477 5471 5465 5459 5454 5449 5446 5442 5439 5436 5434 5431 5429 5427 5426 5426 5425 5425
5542 5541 5547 5549 5548 5547 5546 5545 5543 5541 5540 5537 5534 5531 5527 5523 5519 5515 5510 5505 5500 5495 5490 5484 5478 5473 5468 5462 5457 5452 5448 5444 5440 5436 5433 5430 5428 5426 5424 5423 5422 5421 5421 5422
5532 5536 5537 5536 5536 5535 5534 5534 5532 5531 5529 5527 5524 5521 5517 5514 5509 5505 5500 5495 5490 5485 5480 5475 5469 5464 5459 5455 5450 5446 5442 5439 5435 5431 5427 5424 5422 5421 5419 5418 5417 5417 5418 5418
5521 5524 5525 5525 5524 5524 5523 5522 5521 5520 5518 5516 5513 5510 5507 5503 5499 5495 5490 5485 5480 5476 5472 5467 5462 5456 5451 5447 5443 5439 5436 5433 5429 5425 5422 5420 5417 5415 5414 5413 5413 5413 5413 5414
5510 5513 5513 5513 5513 5513 5512 5511 5510 5509 5507 5505 5502 5500 5496 5493 5489 5485 5481 5476 5471 5467 5463 5458 5454 5449 5444 5439 5436 5433 5429 5426 5422 5419 5417 5414 5412 5410 5409 5408 5407 5408 5409 5410
5500 5502 5501 5502 5502 5502 5501 5501 5500 5499 5497 5495 5492 5489 5486 5482 5479 5475 5471 5466 5462 5458 5454 5450 5445 5441 5437 5432 5429 5425 5422 5419 5415 5412 5410 5408 5406 5406 5404 5403 5403 5404 5405 5407
5487 5488 5489 5490 5490 5490 5490 5489 5489 5487 5486 5484 5481 5478 5475 5472 5469 5465 5461 5457 5453 5449 5445 5442 5438 5433 5429 5425 5421 5418 5415 5412 5408 5406 5404 5402 5401 5401 5401 5400 5400 5400 5402 5404
5475 5476 5477 5479 5479 5479 5479 5478 5477 5476 5474 5472 5469 5467 5464 5461 5459 5455 5452 5448 5444 5441 5437 5433 5430 5426 5422 5418 5415 5411 5408 5405 5402 5400 5398 5397 5397 5396 5396 5397 5397 5398 5399 5400
5465 5466 5467 5467 5467 5467 5467 5466 5465 5464 5462 5460 5458 5456 5454 5451 5449 5446 5442 5439 5435 5432 5429 5425 5422 5418 5415 5411 5408 5405 5402 5400 5397 5395 5394 5393 5393 5393 5393 5393 5394 5395 5395 5397
5455 5455 5455 5456 5456 5456 5455 5454 5453 5453 5451 5450 5448 5446 5443 5441 5439 5436 5433 5430 5427 5424 5421 5417 5414 5411 5408 5405 5402 5399 5396 5394 5392 5391 5390 5389 5389 5389 5389 5390 5390 5391 5393 5395
5445 5445 5445 5445 5445 5445 5444 5444 5443 5442 5441 5439 5438 5436 5434 5431 5429 5426 5424 5421 5419 5416 5413 5410 5407 5404 5401 5398 5396 5393 5391 5389 5387 5386 5385 5385 5385 5385 5386 5387 5388 5389 5390 5392
5435 5435 5436 5436 5436 5435 5435 5434 5433 5432 5431 5429 5428 5426 5424 5422 5420 5418 5415 5413 5411 5408 5406 5403 5400 5397 5395 5392 5390 5387 5385 5384 5383 5382 5381 5381 5381 5382 5382 5383 5385 5386 5388 5390
5426 5426 5426 5427 5427 5426 5426 5425 5424 5423 5422 5420 5419 5417 5415 5413 5411 5409 5407 5405 5403 5401 5399 5396 5393 5391 5388 5386 5384 5382 5380 5379 5378 5377 5377 5377 5377 5378 5379 5380 5382 5384 5386 5388
5418 5418 5418 5418 5418 5418 5417 5417 5416 5415 5413 5412 5411 5409 5407 5405 5403 5401 5400 5398 5396 5393 5391 5389 5387 5385 5383 5380 5378 5377 5376 5375 5374 5373 5373 5373 5373 5374 5376 5377 5379 5381 5383 5386
5410 5410 5410 5410 5410 5410 5410 5409 5408 5407 5406 5404 5403 5401 5400 5398 5396 5394 5392 5391 5389 5386 5384 5382 5381 5379 5377 5375 5373 5372 5371 5370 5370 5369 5369 5369 5370 5371 5372 5374 5376 5379 5381 5383
5402 5403 5403 5403 5403 5403 5402 5401 5400 5399 5398 5397 5395 5394 5392 5391 5389 5387 5385 5384 5382 5380 5378 5376 5374 5373 5371 5369 5368 5367 5367 5366 5366 5366 5365 5366 5366 5367 5369 5371 5373 5376 5378 5381
5396 5396 5396 5396 5396 5396 5395 5394 5393 5392 5390 5389 5388 5387 5385 5384 5382 5380 5379 5377 5375 5373 5371 5370 5368 5367 5365 5364 5363 5363 5362 5362 5362 5362 5362 5362 5363 5364 5366 5368 5370 5373 5375 5378
5389 5389 5389 5389 5389 5388 5388 5387 5386 5384 5383 5382 5381 5379 5378 5376 5375 5373 5372 5370 5368 5367 5365 5363 5362 5361 5360 5359 5359 5358 5358 5358 5358 5358 5359 5359 5360 5361 5363 5365 5368 5370 5373 5376
5382 5382 5382 5382 5382 5381 5380 5379 5378 5377 5376 5375 5373 5372 5370 5369 5368 5366 5365 5363 5361 5360 5358 5357 5356 5355 5355 5354 5354 5354 5354 5355 5355 5355 5356 5357 5358 5359 5361 5363 5366 5368 5371 5375
5375 5375 5375 5374 5374 5374 5373 5372 5371 5370 5369 5367 5366 5364 5363 5361 5360 5358 5357 5356 5354 5353 5352 5351 5350 5350 5350 5350 5350 5350 5351 5351 5352 5353 5354 5355 5356 5358 5360 5362 5364 5367 5370 5374
5367 5367 5367 5367 5367 5366 5366 5365 5364 5363 5361 5360 5359 5357 5356 5354 5353 5351 5350 5349 5348 5347 5346 5345 5345 5345 5345 5345 5346 5346 5347 5348 5349 5350 5351 5353 5355 5356 5358 5360 5363 5366 5369 5373